Weather History for KSSF - December, 2014

Change the Weather History Date:

Wednesday, December 31, 2014

  Actual Average Record
Temperature  
Mean Temperature 40 °F -  
Max Temperature 42 °F 61 °F 80 °F (2004)
Min Temperature 39 °F 38 °F 34 °F (2001)
Degree Days  
Heating Degree Days 24    
Moisture  
Dew Point 31 °F    
Average Humidity 70    
Maximum Humidity 86    
Minimum Humidity 62    
Precipitation  
Precipitation 0.00 in - - ()
Sea Level Pressure  
Sea Level Pressure 30.42 in    
Wind  
Wind Speed 12 mph (NNE)    
Max Wind Speed 17 mph    
Max Gust Speed 24 mph    
Visibility 10 miles    
Events Rain    
Averages and records for this station are not official NWS values.
T = Trace of Precipitation, MM = Missing Value Source: NWS Daily Summary

Daily Weather History Graph

Daily Weather History Graph

Search for Another Location

Airport or City:

Trip Planner

Search our weather history database for the weather conditions in past years. The results will help you decide how hot, cold, wet, or windy it might be!

Date:

Astronomy

Dec. 31, 2014 Rise Set
Actual Time 7:28 AM CST 5:46 PM CST
Civil Twilight 7:01 AM CST 6:12 PM CST
Nautical Twilight 6:32 AM CST 6:41 PM CST
Astronomical Twilight 6:03 AM CST 7:10 PM CST
Moon 2:27 PM CST (12/31) 3:07 AM CST (12/31)
Length of Visible Light 11h 10m
Length of Day
10h 18m
Waxing Gibbous, 80% of the Moon is Illuminated
Dec 31
Waxing Gibbous
Jan 4
Full
Jan 13
Last Quarter
Jan 20
New
Jan 26
First Quarter

Hourly Weather History & Observations

Time (CST) Temp. Windchill Dew Point Humidity Pressure Visibility Wind Dir Wind Speed Gust Speed Precip Events Conditions
12:53 AM 42.1 °F 36.1 °F 33.1 °F 70% 30.43 in 10.0 mi NE 10.4 mph 20.7 mph 0.00 in   Overcast
1:53 AM 41.0 °F 33.5 °F 32.0 °F 70% 30.41 in 10.0 mi NNE 13.8 mph 21.9 mph N/A   Overcast
2:26 AM 39.9 °F 31.8 °F 32.0 °F 73% 30.40 in 10.0 mi NNE 15.0 mph 21.9 mph N/A   Overcast
2:53 AM 39.9 °F 33.4 °F 33.1 °F 77% 30.42 in 10.0 mi NNE 10.4 mph 24.2 mph 0.00 in   Overcast
3:53 AM 39.0 °F 32.3 °F 34.0 °F 82% 30.44 in 6.0 mi NNE 10.4 mph - 0.00 in Rain Light Rain
4:53 AM 39.0 °F 33.4 °F 35.1 °F 86% 30.44 in 5.0 mi NNE 8.1 mph - 0.00 in Rain Light Rain
5:53 AM 39.9 °F 32.1 °F 34.0 °F 79% 30.43 in 10.0 mi NNE 13.8 mph - 0.00 in Rain Light Rain
6:53 AM 41.0 °F 34.3 °F 33.1 °F 73% 30.44 in 10.0 mi NNE 11.5 mph 20.7 mph 0.00 in   Overcast
7:53 AM 39.9 °F 31.8 °F 32.0 °F 73% 30.46 in 10.0 mi NNE 15.0 mph 23.0 mph 0.00 in   Overcast
8:53 AM 39.0 °F 29.9 °F 30.9 °F 73% 30.48 in 10.0 mi NNE 17.3 mph 23.0 mph N/A   Overcast
9:53 AM 39.9 °F 32.1 °F 30.0 °F 68% 30.50 in 10.0 mi NNE 13.8 mph 23.0 mph N/A   Overcast
10:53 AM 39.9 °F 31.8 °F 30.0 °F 68% 30.49 in 10.0 mi NNE 15.0 mph 23.0 mph N/A   Overcast
11:53 AM 41.0 °F 33.5 °F 30.0 °F 65% 30.47 in 10.0 mi NE 13.8 mph - N/A   Overcast
12:53 PM 42.1 °F 35.2 °F 30.0 °F 62% 30.42 in 10.0 mi NNE 12.7 mph - N/A   Overcast
1:53 PM 41.0 °F 32.8 °F 30.0 °F 65% 30.40 in 10.0 mi North 16.1 mph 20.7 mph N/A   Overcast
2:53 PM 41.0 °F 33.9 °F 30.9 °F 67% 30.38 in 10.0 mi North 12.7 mph - N/A   Overcast
3:53 PM 42.1 °F 35.7 °F 30.9 °F 65% 30.38 in 10.0 mi NNE 11.5 mph - N/A   Overcast
4:53 PM 42.1 °F 36.1 °F 30.0 °F 62% 30.37 in 10.0 mi NNE 10.4 mph - N/A   Overcast
5:53 PM 41.0 °F 33.5 °F 30.0 °F 65% 30.37 in 10.0 mi NNE 13.8 mph - N/A   Overcast
6:53 PM 41.0 °F 34.7 °F 30.0 °F 65% 30.39 in 10.0 mi NNE 10.4 mph - N/A   Overcast
7:53 PM 41.0 °F 35.8 °F 30.0 °F 65% 30.40 in 10.0 mi North 8.1 mph - N/A   Overcast
8:53 PM 39.9 °F 33.9 °F 30.0 °F 68% 30.41 in 10.0 mi North 9.2 mph - 0.00 in   Overcast
9:53 PM 39.9 °F 33.4 °F 28.9 °F 65% 30.41 in 10.0 mi NNE 10.4 mph - N/A   Overcast
10:49 PM 39.2 °F 32.5 °F 30.2 °F 70% 30.37 in 10.0 mi North 10.4 mph - N/A   Overcast
10:53 PM 39.9 °F 33.9 °F 30.0 °F 68% 30.40 in 10.0 mi North 9.2 mph - N/A   Overcast
11:08 PM 39.9 °F 33.9 °F 30.0 °F 68% 30.36 in 10.0 mi North 9.2 mph - N/A   Overcast
11:53 PM 39.9 °F 34.5 °F 30.0 °F 68% 30.36 in 10.0 mi NNE 8.1 mph - N/A   Overcast